This is the latest recevied weather packets stored in our database for station/object KG4IFE-13. If no packets are shown the sender has not sent any weather packets the latest 10 day(s).
| Time | Temp. | Humidity | Pressure | Rain* | Wind** | Luminosity | Snow |
|---|---|---|---|---|---|---|---|
| 1777240770 | 13.33° C | 81% | 1018.3 hPa | - | - | - | - |
| 1777239564 | 13.33° C | 80% | 1018.2 hPa | - | - | - | - |
| 1777238661 | 13.89° C | 81% | 1018 hPa | - | - | - | - |
| 1777238059 | 13.33° C | 82% | 1017.9 hPa | - | - | - | - |
| 1777235954 | 12.78° C | 83% | 1017.7 hPa | - | - | - | - |
| 1777231436 | 11.67° C | 85% | 1017.9 hPa | - | - | - | - |
| 1777230233 | 12.22° C | 85% | 1018 hPa | - | - | - | - |
| 1777227223 | 12.78° C | 83% | 1017.8 hPa | - | - | - | - |
| 1777224815 | 12.78° C | 84% | 1017.5 hPa | - | - | - | - |
| 1777223310 | 13.89° C | 84% | 1017.4 hPa | - | - | - | - |
| 1777221203 | 13.89° C | 84% | 1017.2 hPa | - | - | - | - |
| 1777220601 | 13.89° C | 84% | 1017.1 hPa | - | - | - | - |
| 1777220000 | 13.89° C | 85% | 1017 hPa | - | - | - | - |
| 1777219398 | 13.89° C | 84% | 1017 hPa | - | - | - | - |
| 1777219097 | 13.89° C | 84% | 1016.9 hPa | - | - | - | - |
| 1777217912 | 13.89° C | 85% | 1016.9 hPa | - | - | - | - |
| 1777215486 | 13.89° C | 88% | 1016.4 hPa | - | - | - | - |
| 1777213977 | 13.33° C | 87% | 1016.3 hPa | - | - | - | - |
| 1777213398 | 13.89° C | 88% | 1016.2 hPa | - | - | - | - |
| 1777213076 | 13.89° C | 88% | 1016 hPa | - | - | - | - |
| 1777211290 | 13.89° C | 88% | 1015.8 hPa | - | - | - | - |
| 1777210970 | 13.89° C | 88% | 1015.8 hPa | - | - | - | - |
| 1777208862 | 13.89° C | 89% | 1015.5 hPa | - | - | - | - |
| 1777208561 | 13.89° C | 89% | 1015.5 hPa | - | - | - | - |
| 1777207958 | 13.89° C | 89% | 1015.5 hPa | - | - | - | - |
* Rain since midnight (hover to see other rain measurements)
** Current wind speed in m/s (hover to see current wind gust speed)